sat.trackr.live / text

‹ back to catalog

STARLINK-6227

NORAD 57060 · 2023-088N

PAYLOAD ACTIVE UNKNOWN

§ Identity

Operator
Country
US
Launch date
2023-06-22
Launch site
AFWTR
Launch vehicle
Mass (kg)
RCS (m²)

Purposes: comms

External: N2YO · Heavens-Above · Gunter

§ Orbital elements

Epoch: 2026-09-20T21:47:06.639072Z

Period
94.27 min
Inclination
43.0045°
Eccentricity
0.0001885
Mean motion
15.27576211 rev/d
Perigee alt
481.8 km
Apogee alt
484.4 km
Semi-major
6,861.2 km
B*
9.9671e-6
RAAN
88.5776°
Arg perigee
265.2957°
Mean anomaly
94.7679°
Rev number
18,018

§ Raw data

STARLINK-62271 57060U 23088N   26263.90771573  .00000012  00000+0  99671-5 0  99962 57060  43.0045  88.5776 0001885 265.2957  94.7679 15.27576211180182

JSON: /api/v1/satellites/57060 · /tle

For live sub-satellite position, see the globe view (requires WebGL).

§ Visibility from observer

Set your observer location to see the next 7 days of passes ≥ 10°. The values pass through the URL so the page stays shareable.

No JS? Fill the form by hand. The geolocation button needs JavaScript.